Dover, DE

5:28 AM EDT on August 26, 2016 (GMT -0400)
Dover Air Force Base

Weather History for KDOV - June, 2013

Change the Weather History Date:

Saturday, June 22, 2013

  Actual Average Record
Temperature  
Mean Temperature 69 °F -  
Max Temperature 80 °F 84 °F 100 °F (1988)
Min Temperature 59 °F 64 °F 48 °F (1963)
Cooling Degree Days 4    
Growing Degree Days 19 (Base 50)    
Moisture  
Dew Point 63 °F    
Average Humidity 79    
Maximum Humidity 100    
Minimum Humidity 58    
Precipitation  
Precipitation 0.00 in - - ()
Sea Level Pressure  
Sea Level Pressure 30.22 in    
Wind  
Wind Speed 5 mph (SSE)    
Max Wind Speed 14 mph    
Max Gust Speed -    
Visibility 10 miles    
Events Rain    
Averages and records for this station are not official NWS values.
T = Trace of Precipitation, MM = Missing Value Source: NWS Daily Summary

Daily Weather History Graph

Daily Weather History Graph

Search for Another Location

Airport or City:

Trip Planner

Search our weather history database for the weather conditions in past years. The results will help you decide how hot, cold, wet, or windy it might be!

Date:

Astronomy

Jun. 22, 2013 Rise Set
Actual Time 5:36 AM EDT 8:31 PM EDT
Civil Twilight 5:04 AM EDT 9:03 PM EDT
Nautical Twilight 4:23 AM EDT 9:44 PM EDT
Astronomical Twilight 3:36 AM EDT 10:31 PM EDT
Moon 7:44 PM EDT (6/22) 4:46 AM EDT (6/22)
Length of Visible Light 15h 59m
Length of Day
14h 55m
Waxing Gibbous, 99% of the Moon is Illuminated
Jun 22
Waxing Gibbous
Jun 23
Full
Jun 30
Last Quarter
Jul 8
New
Jul 15
First Quarter

Hourly Weather History & Observations

Time (EDT) Temp. Dew Point Humidity Pressure Visibility Wind Dir Wind Speed Gust Speed Precip Events Conditions
12:58 AM 62.8 °F 62.4 °F 99% 30.25 in 10.0 mi SSE 5.8 mph - N/A   Clear
1:58 AM 62.6 °F 62.4 °F 99% 30.26 in 10.0 mi SSE 1.2 mph - N/A   Clear
2:58 AM 61.3 °F 61.2 °F 99% 30.25 in 10.0 mi Calm Calm - N/A   Clear
3:58 AM 62.8 °F 62.4 °F 99% 30.26 in 10.0 mi WSW 1.2 mph - N/A   Clear
4:28 AM 60.8 °F 60.8 °F 100% 30.25 in 9.0 mi South 2.3 mph - N/A   Clear
4:53 AM 59.0 °F 59.0 °F 100% 30.25 in 10.0 mi South 3.5 mph - N/A   Clear
4:58 AM 59.5 °F 59.2 °F 99% 30.26 in 10.0 mi South 3.5 mph - N/A   Clear
5:58 AM 60.3 °F 59.9 °F 99% 30.26 in 5.0 mi South 2.3 mph - N/A   Clear
6:58 AM 63.5 °F 63.5 °F 100% 30.26 in 10.0 mi SSE 1.2 mph - N/A   Clear
7:58 AM 66.9 °F 66.6 °F 99% 30.24 in 10.0 mi SSE 3.5 mph - N/A   Clear
8:53 AM 71.6 °F 64.4 °F 78% 30.24 in 10.0 mi Variable 1.2 mph - N/A Rain Light Rain
8:58 AM 71.1 °F 64.4 °F 79% 30.24 in 10.0 mi Calm Calm - 0.00 in Rain Light Rain
9:15 AM 73.4 °F 62.6 °F 69% 30.24 in 10.0 mi SSW 2.3 mph - N/A   Clear
9:58 AM 74.1 °F 65.3 °F 74% 30.24 in 10.0 mi Variable 2.3 mph - 0.00 in   Clear
10:58 AM 75.9 °F 68.5 °F 78% 30.26 in 10.0 mi ENE 6.9 mph - N/A   Partly Cloudy
11:58 AM 75.6 °F 66.7 °F 74% 30.26 in 10.0 mi ENE 8.1 mph - N/A   Partly Cloudy
12:58 PM 78.3 °F 65.3 °F 64% 30.25 in 10.0 mi East 8.1 mph - N/A   Clear
1:58 PM 78.8 °F 64.6 °F 62% 30.24 in 10.0 mi ESE 9.2 mph - N/A   Clear
2:58 PM 79.3 °F 63.7 °F 59% 30.24 in 10.0 mi East 11.5 mph - N/A   Clear
3:58 PM 79.5 °F 63.5 °F 58% 30.20 in 10.0 mi ESE 11.5 mph - N/A   Clear
4:58 PM 78.1 °F 64.2 °F 62% 30.19 in 10.0 mi ESE 13.8 mph - N/A   Clear
5:58 PM 78.3 °F 64.6 °F 63% 30.18 in 10.0 mi ESE 10.4 mph - N/A   Clear
6:58 PM 76.8 °F 64.2 °F 65% 30.17 in 10.0 mi SE 8.1 mph - N/A   Clear
7:58 PM 75.0 °F 62.1 °F 64% 30.17 in 10.0 mi South 11.5 mph - N/A   Clear
8:35 PM 73.4 °F 62.6 °F 69% 30.16 in 10.0 mi SSE 12.7 mph - N/A Rain Light Rain
8:45 PM 73.4 °F 62.6 °F 69% 30.15 in 10.0 mi SSE 10.4 mph - N/A   Clear
8:58 PM 73.4 °F 61.7 °F 67% 30.17 in 10.0 mi South 10.4 mph - 0.00 in   Clear
9:58 PM 71.6 °F 61.5 °F 70% 30.18 in 10.0 mi SSE 9.2 mph - N/A   Clear
10:58 PM 69.8 °F 60.4 °F 72% 30.18 in 10.0 mi South 6.9 mph - N/A   Clear
11:58 PM 68.2 °F 60.3 °F 76% 30.19 in 10.0 mi South 4.6 mph - N/A   Clear